Location: Newark
(50.4348°N, 30.5552°E)
Time: 19:54:45
(UTC+00:00)

S-56A Canister/Altair - Visible Passes

Search period start: 22 January 2020 00:00
Search period end: 01 February 2020 00:00
Orbit: 634 x 2498 km, 38.9° (Epoch: 22 January)

Date Brightness Start Highest point End Pass type
(mag) Time Alt. Az. Time Alt. Az. Time Alt. Az.
26 Jan 10.0 18:13:32 10° SW 18:15:15 15° SSW 18:15:15 15° SSW visible
27 Jan 9.6 17:40:37 10° SSW 17:44:29 20° S 17:44:29 20° S visible
28 Jan 9.5 17:07:38 10° SSW 17:12:51 20° SSE 17:13:43 20° SSE visible
28 Jan 10.5 19:11:02 10° WSW 19:11:09 10° SW 19:11:09 10° SW visible
29 Jan 9.6 16:34:36 10° SSW 16:40:13 21° SSE 16:42:55 16° SE visible
29 Jan 10.0 18:38:00 10° SW 18:40:21 18° SW 18:40:21 18° SW visible
30 Jan 9.8 16:01:33 10° SSW 16:07:32 21° SSE 16:12:06 10° ESE visible
30 Jan 9.4 18:04:53 10° SW 18:09:33 26° SSW 18:09:33 26° SSW visible
31 Jan 10.0 15:28:28 10° SSW 15:34:49 20° SSE 15:39:45 10° ESE visible
31 Jan 9.1 17:31:42 10° SW 17:38:10 29° S 17:38:43 28° S visible
